#timestamp,LO_Frequency,Hit,StdDev 
1583546415.2,286047000.7,N
1583546435.9,286046998.2,N
1583546455.7,286047000.7,N
1583546475.6,286047000.2,N
1583546495.4,286047000.9,N
1583546515.3,286047001.2,N
1583546535.1,286046999.7,N
1583546536.0,286046999.7,N
1583546555.8,286047000.3,N
1583546575.7,286047000.0,N
1583546595.5,286046998.8,N
1583546615.3,286046999.2,N
1583546635.2,286046999.0,N
1583546655.0,286046998.2,N
1583546655.9,286046998.2,N
1583546675.8,286046996.5,Y
1583546695.6,286047001.1,P
1583546715.4,286046998.4,N
1583546735.3,286047000.0,N
1583546755.1,286046999.8,N
1583546775.9,286047001.5,N
1583546795.7,286047003.1,Y
1583546815.5,286047005.7,P
1583546835.4,286047005.3,N
1583546855.2,286047003.4,N
1583546875.0,286047003.2,N
1583546875.9,286047003.2,N
1583546895.8,286047003.9,N
1583546915.6,286047004.3,N
1583546935.5,286047001.9,N
1583546955.3,286047002.5,N
1583546975.1,286047002.0,N
1583546995.9,286047000.3,N
1583547015.7,286047002.7,N
1583547035.6,286047000.0,N
1583547055.4,286046999.8,N
1583547075.2,286046999.7,N
1583547095.1,286047002.2,N
1583547096.0,286047002.2,N
1583547115.8,286047001.3,N
1583547135.6,286047003.7,N
1583547155.5,286047005.5,Y
1583547175.3,286047002.3,P
1583547195.2,286047002.8,P
1583547215.9,286047000.0,N
1583547235.7,286046998.1,N
1583547255.6,286046998.4,N
1583547275.4,286046998.7,N
1583547295.2,286047000.8,N
1583547315.1,286046998.3,N
1583547316.0,286046998.3,N
1583547335.8,286046998.4,N
1583547355.7,286046998.5,N
1583547375.5,286046998.4,N
1583547395.3,286047001.2,N
1583547415.2,286047001.0,N
1583547435.0,286047002.7,N
1583547435.9,286047002.7,N
1583547455.8,286047000.4,N
1583547475.6,286047001.1,N
1583547495.4,286047000.0,N
1583547515.3,286047000.7,N
1583547535.1,286046998.3,N
1583547555.8,286046998.3,N
1583547575.7,286046998.3,N
1583547595.5,286046999.4,N
1583547615.4,286047000.7,N
1583547635.2,286047001.0,N
1583547655.0,286047000.9,N
1583547655.9,286047000.9,N
1583547675.8,286047000.9,N
1583547695.6,286046999.7,N
1583547715.4,286047001.8,N
1583547735.3,286047003.5,N
1583547755.1,286047005.5,Y
1583547775.9,286047004.4,P
1583547795.7,286047004.3,N
1583547815.5,286047003.8,N
1583547835.4,286047003.8,N
1583547855.2,286047004.0,N
1583547875.1,286047001.9,N
1583547876.0,286047011.9,Y
1583547895.8,286046999.0,P
1583547915.6,286046999.3,N
1583547935.5,286046998.8,N
1583547955.3,286046999.5,N
1583547975.1,286046997.1,N
1583547995.9,286046997.6,N
1583548015.7,286046997.0,N
1583548035.6,286047001.1,N
1583548055.4,286047000.5,N
1583548075.2,286047000.6,N
1583548095.1,286046999.9,N
1583548096.0,286046999.9,N
1583548115.8,286047002.1,N
1583548135.7,286046999.7,N
1583548155.5,286047002.8,N
1583548175.3,286047002.2,N
1583548195.2,286047000.5,N
1583548215.0,286046998.4,N
1583548215.9,286046998.4,N
1583548235.7,286046999.4,N
1583548255.6,286046999.5,N
1583548275.4,286046998.6,N
1583548295.3,286046998.5,N
1583548315.1,286047000.3,N
1583548316.0,286047000.3,N
1583548335.8,286047000.0,N
1583548355.7,286046999.8,N
1583548375.5,286047001.5,N
1583548395.3,286047004.4,N
1583548415.2,286047003.8,N
1583548435.0,286047004.3,N
1583548435.9,286047004.3,N
1583548455.8,286047001.8,N
1583548475.6,286047004.3,N
1583548495.4,286047003.0,N
1583548515.3,286047003.1,N
1583548535.1,286047002.5,N
1583548555.9,286046999.9,N
1583548575.7,286047000.8,N
1583548595.5,286047000.6,N
1583548615.4,286046998.1,N
1583548635.2,286046998.1,N
1583548655.0,286046999.9,N
1583548655.9,286046999.9,N
1583548675.8,286047000.2,N
1583548695.6,286047002.2,N
1583548715.5,286047003.8,N
1583548735.3,286047004.2,N
1583548755.1,286047002.1,N
1583548775.9,286047004.4,N
1583548795.7,286047000.2,N
1583548815.6,286047002.2,N
1583548835.4,286047000.9,N
1583548855.2,286047000.0,N
1583548875.1,286046999.9,N
1583548876.0,286046999.9,N
1583548895.8,286047000.7,N
1583548915.6,286046998.2,N
1583548935.5,286046999.1,N
1583548955.3,286046998.8,N
1583548975.2,286046998.5,N
1583548995.9,286047000.9,N
1583549015.7,286046999.7,N
1583549035.6,286047002.6,N
1583549055.4,286047002.2,N
1583549075.3,286047002.6,N
1583549095.1,286047001.9,N
1583549096.0,286047001.9,N
1583549115.8,286047002.2,N
1583549135.7,286047002.6,N
1583549155.5,286047000.2,N
1583549175.3,286047000.6,N
1583549195.2,286047000.6,N
1583549215.0,286047000.2,N
1583549215.9,286047000.2,N
1583549235.8,286047000.9,N
1583549255.6,286047001.0,N
1583549275.4,286047000.3,N
1583549295.3,286047000.0,N
1583549315.1,286047001.5,N
1583549335.9,286047003.6,N
1583549355.7,286047005.7,Y
1583549375.5,286047004.0,P
1583549395.4,286047004.4,N
1583549415.2,286047003.2,N
1583549435.0,286047004.1,N
1583549436.0,286047004.1,Y
1583549455.8,286046998.8,P
1583549475.6,286046998.3,N
1583549495.5,286046999.4,N
1583549515.3,286046996.9,N
1583549535.1,286046995.5,N
1583549555.9,286046995.3,N
1583549575.7,286046997.7,N
1583549595.6,286046999.1,N
1583549615.4,286046998.6,N
1583549635.2,286047001.0,N
1583549655.1,286047000.7,N
1583549656.0,286047000.7,N
1583549675.8,286047001.0,N
1583549695.7,286047001.0,N
1583549715.5,286047000.9,N
1583549765.3,286046997.2,E
1583549775.3,286046999.5,N
1583549795.1,286046998.5,P
1583549796.0,286046998.5,P
1583549815.8,286046998.3,Y
1583549835.7,286047000.5,P
1583549855.5,286047001.0,N
1583549875.4,286046999.9,N
1583549895.2,286047000.0,N
1583549915.0,286046999.9,N
1583549915.9,286046999.9,N
1583549935.8,286047002.2,Y
1583549955.6,286047003.5,P
1583549975.5,286047003.8,N
1583549995.3,286047003.7,N
